sat.trackr.live / text

‹ back to catalog

GAOFEN-8

NORAD 40701 · 2015-030A

PAYLOAD ACTIVE UNKNOWN

§ Identity

Operator
Country
PRC
Launch date
2015-06-26
Launch site
TAISC
Launch vehicle
Mass (kg)
RCS (m²)
5.01

Purposes: earth_obs

External: N2YO · Heavens-Above · Gunter

§ Orbital elements

Epoch: 2026-05-25T04:01:34.527072Z

Period
93.20 min
Inclination
97.6920°
Eccentricity
0.0007517
Mean motion
15.45009340 rev/d
Perigee alt
426.2 km
Apogee alt
436.5 km
Semi-major
6,809.5 km
B*
2.5914e-4
RAAN
337.1714°
Arg perigee
276.6766°
Mean anomaly
83.3626°
Rev number
60,789

§ Raw data

GAOFEN-81 40701U 15030A   26145.16776073  .00012141  00000+0  25914-3 0  99982 40701  97.6920 337.1714 0007517 276.6766  83.3626 15.45009340607892

JSON: /api/v1/satellites/40701 · /tle

For live sub-satellite position, see the globe view (requires WebGL).

§ Visibility from observer

Set your observer location to see the next 7 days of passes ≥ 10°. The values pass through the URL so the page stays shareable.

No JS? Fill the form by hand. The geolocation button needs JavaScript.

§ Radio — SatNOGS DB

ModeDescriptionDownlinkUplink
FM S-band telemetry 2.280 GHz

1 transmitter · refreshed weekly from db.satnogs.org